Sunshine Coast Airport Observation History
Time Wind Speed Temp Pressure Rel. Hum Rain
25/11:00pm SW 4-6 kts 22.3°c 1012.9 hPa 100% 87.8mm
25/10:30pm SW 6-8 kts 22.5°c 1013.3 hPa 100% 87.8mm
25/10:00pm WSW 6-8 kts 22.5°c 1013.5 hPa 100% 87.8mm
25/09:30pm SW 5-6 kts 22.6°c 1013.9 hPa 100% 87.8mm
25/09:02pm SSW 7-9 kts 22.8°c 1014.1 hPa 100% 87.0mm
25/09:00pm SW 7-9 kts 22.9°c 1014.1 hPa 100% 87.0mm
25/08:50pm WSW 5-6 kts 22.7°c 1013.9 hPa 100% 87.0mm
25/08:30pm ESE 3-4 kts 22.7°c 1013.7 hPa 100% 86.6mm
25/08:16pm ESE 3-5 kts 22.6°c 1013.7 hPa 100% 86.6mm
25/08:00pm SSE 5-9 kts 22.9°c 1013.7 hPa 100% 86.4mm
25/07:41pm SSW 5-6 kts 22.8°c 1013.7 hPa 100% 86.0mm
25/07:30pm SSW 5-7 kts 22.7°c 1013.6 hPa 100% 85.6mm
25/07:24pm SSW 5-7 kts 22.7°c 1013.6 hPa 100% 85.2mm
25/07:11pm SW 5-6 kts 22.7°c 1013.6 hPa 100% 84.2mm
25/07:02pm SW 5-6 kts 22.6°c 1013.5 hPa 100% 84.0mm
25/07:00pm SW 5-6 kts 22.6°c 1013.5 hPa 100% 84.0mm
25/06:56pm SSW 5-6 kts 22.7°c 1013.5 hPa 100% 84.0mm
25/06:40pm S 5-6 kts 22.7°c 1013.4 hPa 100% 84.0mm
25/06:30pm SSE 5 kts 22.7°c 1013.3 hPa 100% 84.0mm
25/06:27pm SSE 5-6 kts 22.6°c 1013.3 hPa 100% 84.0mm
25/06:00pm SE 10-14 kts 22.8°c 1013.1 hPa 100% 83.0mm
25/05:46pm SE 11-15 kts 23.0°c 1013.0 hPa 100% 81.2mm
25/05:30pm SE 11-15 kts 22.6°c 1013.0 hPa 100% 80.0mm
25/05:04pm SSE 9-13 kts 22.9°c 1012.7 hPa 100% 78.0mm
25/05:00pm S 8-11 kts 22.8°c 1012.8 hPa 100% 77.8mm
25/04:36pm S 10-13 kts 22.3°c 1012.7 hPa 100% 75.6mm
25/04:30pm SSE 12-16 kts 22.3°c 1012.6 hPa 100% 74.2mm
25/04:03pm S 9-11 kts 22.8°c 1012.6 hPa 100% 64.8mm
25/04:00pm SSW 9-11 kts 22.8°c 1012.5 hPa 100% 64.4mm
25/03:46pm SSW 11-17 kts 22.7°c 1012.4 hPa 100% 64.0mm
25/03:34pm SSW 10-14 kts 22.9°c 1012.4 hPa 100% 63.4mm
25/03:30pm SSW 10-14 kts 22.7°c 1012.5 hPa 100% 62.6mm
25/03:17pm SW 6-11 kts 23.3°c 1012.8 hPa 100% 56.8mm
25/03:00pm NNW 3-5 kts 23.5°c 1012.6 hPa 100% 54.0mm
25/02:50pm WNW 4-5 kts 23.3°c 1012.6 hPa 100% 53.8mm
25/02:42pm WNW 4-5 kts 23.2°c 1012.7 hPa 100% 53.8mm
25/02:32pm SW 3-6 kts 23.0°c 1013.0 hPa 100% 53.6mm
25/02:30pm SSW 4-7 kts 23.1°c 1013.0 hPa 100% 53.6mm
25/02:14pm ESE 8-12 kts 22.8°c 1013.3 hPa 100% 52.2mm
25/02:10pm E 8-12 kts 22.6°c 1013.3 hPa 100% 51.0mm
25/02:00pm ESE 4-6 kts 22.7°c 1013.4 hPa 100% 42.4mm
25/01:30pm SSE 7-9 kts 23.0°c 1013.6 hPa 100% 26.6mm
25/01:00pm S 7-10 kts 22.9°c 1013.9 hPa 100% 21.6mm
25/12:40pm SSE 9-14 kts 22.9°c 1014.1 hPa 100% 13.6mm
25/12:34pm SSE 10-13 kts 23.3°c 1014.1 hPa 100% 12.8mm
25/12:30pm SE 11-13 kts 23.1°c 1014.1 hPa 100% 12.4mm
25/12:00pm S 10-13 kts 23.1°c 1014.6 hPa 100% 3.0mm
25/11:40am S 10-14 kts 24.0°c 1014.4 hPa 100% 1.6mm
25/11:35am S 9-14 kts 24.2°c 1014.4 hPa 100% 1.6mm
25/11:30am SSE 7-10 kts 24.7°c 1014.4 hPa 100% 1.6mm
25/11:14am S 8-10 kts 24.3°c 1014.5 hPa 100% 1.6mm
25/11:04am S 8-11 kts 23.9°c 1014.7 hPa 100% 1.6mm
25/11:00am S 8-11 kts 24.4°c 1014.7 hPa 100% 1.6mm
25/10:30am SE 9-13 kts 23.7°c 1015.2 hPa 100% 1.2mm
25/10:00am SE 11-18 kts 23.5°c 1015.4 hPa 100% 0.4mm
25/09:37am SSE 9-15 kts 23.2°c 1015.4 hPa 100% 0.2mm
25/09:30am SSW 7-10 kts 22.9°c 1015.3 hPa 100% 0.2mm
25/09:12am S 9-11 kts 22.8°c 1015.2 hPa 100% 0.2mm
25/09:00am S 9-13 kts 22.9°c 1015.1 hPa 100% 40.0mm
25/08:42am S 11-15 kts 22.6°c 1015.0 hPa 100% 39.8mm
25/08:31am S 12-15 kts 22.2°c 1015.0 hPa 100% 39.4mm
25/08:30am SSW 12-15 kts 22.2°c 1015.0 hPa 100% 39.4mm
25/08:20am S 11-15 kts 22.4°c 1014.9 hPa 100% 39.4mm
25/08:00am SSW 10-14 kts 22.5°c 1015.0 hPa 100% 39.2mm
25/07:55am SSW 10-13 kts 22.3°c 1015.0 hPa 100% 39.2mm
25/07:42am SSW 10-12 kts 22.1°c 1014.9 hPa 100% 39.2mm
25/07:30am SSW 9-12 kts 22.0°c 1014.9 hPa 100% 39.0mm
25/07:00am SW 7-10 kts 21.8°c 1014.6 hPa 100% 39.0mm
25/06:52am SW 7-9 kts 21.7°c 1014.7 hPa 100% 39.0mm
25/06:30am SSW 7-9 kts 21.7°c 1014.7 hPa 100% 38.8mm
25/06:00am SSW 8-10 kts 21.9°c 1014.5 hPa 100% 36.8mm
25/05:30am S 7-9 kts 22.3°c 1014.3 hPa 100% 36.0mm
25/05:26am S 6-9 kts 22.2°c 1014.2 hPa 100% 36.0mm
25/05:00am SE 6-8 kts 22.2°c 1014.1 hPa 100% 34.8mm
25/04:30am SSE 9-12 kts 22.1°c 1013.9 hPa 100% 34.4mm
25/04:25am SSE 9-12 kts 22.2°c 1013.9 hPa 100% 34.2mm
25/04:09am S 7-9 kts 22.2°c 1013.8 hPa 100% 34.0mm
25/04:01am S 8-9 kts 22.3°c 1013.8 hPa 100% 33.8mm
25/04:00am S 8-9 kts 22.3°c 1013.8 hPa 100% 33.8mm
25/03:30am SSE 9-10 kts 22.4°c 1014.0 hPa 100% 32.0mm
25/03:01am S 11-15 kts 22.5°c 1013.9 hPa 100% 30.4mm
25/03:00am S 11-15 kts 22.6°c 1013.9 hPa 100% 30.4mm
25/02:33am SSW 8-11 kts 22.7°c 1013.9 hPa 100% 30.4mm
25/02:30am SSW 7-10 kts 22.7°c 1013.9 hPa 100% 30.4mm
25/02:00am SSW 6-8 kts 22.6°c 1014.2 hPa 100% 30.4mm
25/01:30am SW 7-9 kts 22.9°c 1014.3 hPa 100% 30.4mm
25/01:00am E 4-7 kts 24.2°c 1014.5 hPa 99% 30.4mm
25/12:42am ENE 9-13 kts 24.0°c 1014.7 hPa 99% 30.4mm
25/12:30am NE 12-17 kts 23.2°c 1014.9 hPa 99% 30.4mm
25/12:20am ENE 17-23 kts 23.8°c 1015.0 hPa 99% 30.0mm
25/12:17am ENE 15-23 kts 24.2°c 1014.8 hPa 97% 28.8mm
25/12:00am E 8-11 kts 25.7°c 1015.2 hPa 91% 28.8mm
Time Wind Speed Temp Pressure Rel. Hum Rain
24/11:30pm ESE 10-14 kts 26.1°c 1015.4 hPa 83% 28.8mm
24/11:00pm ESE 10-15 kts 26.1°c 1015.6 hPa 84% 28.8mm
24/10:30pm ESE 10-14 kts 26.4°c 1015.8 hPa 80% 28.8mm
24/10:00pm ESE 10-14 kts 26.0°c 1015.7 hPa 83% 28.8mm
24/09:30pm ESE 11-17 kts 26.1°c 1015.8 hPa 82% 28.8mm
24/09:00pm ESE 12-16 kts 26.2°c 1016.0 hPa 84% 28.8mm
24/08:30pm ESE 12-18 kts 26.2°c 1015.8 hPa 84% 28.8mm
24/08:00pm ESE 12-16 kts 26.2°c 1015.8 hPa 83% 28.8mm
24/07:30pm ESE 13-17 kts 26.3°c 1015.6 hPa 81% 28.8mm
24/07:00pm ESE 11-16 kts 26.0°c 1015.1 hPa 84% 28.8mm
24/06:30pm ESE 11-15 kts 26.0°c 1014.8 hPa 87% 28.8mm
24/06:00pm ESE 9-13 kts 25.9°c 1014.9 hPa 87% 28.8mm
24/05:30pm ESE 11-15 kts 25.8°c 1014.4 hPa 83% 28.8mm
24/05:00pm ESE 8-13 kts 25.8°c 1014.2 hPa 89% 28.8mm
24/04:30pm E 10-13 kts 25.4°c 1014.4 hPa 91% 28.8mm
24/04:00pm E 9-11 kts 25.3°c 1014.6 hPa 91% 28.8mm
24/03:31pm SE 5-6 kts 23.9°c 1014.5 hPa 100% 28.8mm
24/03:30pm SSE 5-6 kts 23.9°c 1014.5 hPa 100% 28.8mm
24/03:03pm S 6-13 kts 23.6°c 1014.8 hPa 99% 28.4mm
24/03:00pm SSE 4-10 kts 23.8°c 1014.9 hPa 99% 28.2mm
24/02:53pm NE 1-3 kts 23.8°c 1015.0 hPa 99% 28.0mm
24/02:51pm NE 1-4 kts 23.7°c 1015.1 hPa 99% 28.0mm
24/02:39pm ESE 2-6 kts 23.4°c 1015.1 hPa 99% 28.0mm
24/02:30pm E 7-14 kts 23.4°c 1015.2 hPa 99% 27.6mm
24/02:23pm E 10-16 kts 23.5°c 1015.2 hPa 95% 26.4mm
24/02:00pm S 3-5 kts 25.1°c 1015.1 hPa 96% 26.0mm
24/01:30pm ESE 11-15 kts 24.0°c 1015.1 hPa 93% 25.8mm
24/01:00pm E 10-13 kts 23.8°c 1016.1 hPa 99% 25.8mm
24/12:52pm ESE 6-11 kts 23.2°c 1016.3 hPa 99% 25.6mm
24/12:30pm ESE 10-14 kts 23.5°c 1016.4 hPa 99% 24.2mm
24/12:00pm SSE 11-16 kts 22.5°c 1017.0 hPa 100% 19.4mm
24/11:31am SSW 12-17 kts 23.5°c 1016.6 hPa 100% 1.8mm
24/11:30am SSW 13-17 kts 23.6°c 1016.7 hPa 100% 1.8mm
24/11:28am SSW 12-17 kts 23.8°c 1016.7 hPa 100% 1.6mm
24/11:05am SSE 6-9 kts 24.2°c 1016.6 hPa 95% 0.6mm
24/11:00am S 6-10 kts 24.6°c 1016.6 hPa 91% 0.0mm
24/10:30am S 10-13 kts 23.7°c 1016.8 hPa 93% 0.0mm
24/10:00am SSE 12-16 kts 24.9°c 1017.2 hPa 90% 0.0mm
24/09:30am S 11-14 kts 25.1°c 1017.2 hPa 94% 0.0mm
24/09:00am S 10-13 kts 24.2°c 1017.1 hPa 97% 0.6mm
24/08:30am S 11-14 kts 23.7°c 1016.9 hPa 98% 0.6mm
24/08:00am SSW 11-13 kts 23.3°c 1016.8 hPa 99% 0.6mm
24/07:30am SSW 10-13 kts 23.6°c 1016.7 hPa 93% 0.0mm
24/07:00am SSW 10-13 kts 23.1°c 1016.5 hPa 95% 0.0mm
24/06:30am SSW 7-9 kts 22.8°c 1016.5 hPa 96% 0.0mm
24/06:00am S 10-13 kts 22.8°c 1016.3 hPa 97% 0.0mm
24/05:30am SSW 9-12 kts 22.7°c 1016.1 hPa 97% 0.0mm
24/05:00am SSW 8-9 kts 22.7°c 1015.9 hPa 96% 0.0mm
24/04:30am SSW 8-10 kts 22.8°c 1016.1 hPa 95% 0.0mm
24/04:00am SSW 5-9 kts 23.0°c 1015.7 hPa 93% 0.0mm
24/03:30am SW 5-6 kts 23.0°c 1015.9 hPa 93% 0.0mm
24/03:00am SSW 7-9 kts 23.1°c 1016.1 hPa 90% 0.0mm
24/02:30am S 7-10 kts 23.8°c 1016.0 hPa 84% 0.0mm
24/02:00am ESE 10-14 kts 25.9°c 1016.2 hPa 73% 0.0mm
24/01:30am ESE 11-15 kts 25.9°c 1016.5 hPa 69% 0.0mm
24/01:00am ESE 12-16 kts 25.9°c 1016.7 hPa 72% 0.0mm
24/12:30am ESE 11-14 kts 25.7°c 1017.0 hPa 76% 0.0mm
24/12:00am ESE 13-16 kts 25.8°c 1017.2 hPa 75% 0.0mm
Time Wind Speed Temp Pressure Rel. Hum Rain
23/11:30pm ESE 14-20 kts 25.7°c 1017.6 hPa 77% 0.0mm
23/11:00pm ESE 12-16 kts 25.8°c 1018.0 hPa 76% 0.0mm
23/10:30pm ESE 13-18 kts 26.0°c 1018.1 hPa 76% 0.0mm
23/10:00pm ESE 13-18 kts 26.0°c 1018.3 hPa 74% 0.0mm
23/09:30pm ESE 13-19 kts 26.1°c 1018.5 hPa 74% 0.0mm
23/09:00pm ESE 16-23 kts 26.1°c 1018.1 hPa 71% 0.0mm
23/08:30pm ESE 15-22 kts 26.2°c 1018.3 hPa 69% 0.0mm
23/08:00pm ESE 16-23 kts 26.1°c 1018.2 hPa 75% 0.0mm
23/07:30pm ESE 15-21 kts 26.0°c 1018.0 hPa 75% 0.0mm
23/07:00pm ESE 15-22 kts 26.0°c 1017.9 hPa 72% 0.0mm
23/06:30pm ESE 15-21 kts 26.2°c 1017.6 hPa 65% 0.0mm
23/06:00pm ESE 15-20 kts 26.2°c 1017.5 hPa 71% 0.0mm
23/05:30pm ESE 15-21 kts 26.2°c 1017.2 hPa 72% 0.0mm
23/05:00pm ESE 15-21 kts 26.4°c 1017.0 hPa 70% 0.0mm
23/04:30pm ESE 16-21 kts 26.5°c 1016.9 hPa 73% 0.0mm
23/04:00pm SE 15-21 kts 26.7°c 1016.8 hPa 73% 0.0mm
23/03:30pm SE 16-21 kts 26.9°c 1016.5 hPa 72% 0.0mm
23/03:00pm ESE 16-21 kts 26.6°c 1016.9 hPa 71% 0.0mm
23/02:30pm ESE 15-21 kts 27.0°c 1017.0 hPa 70% 0.0mm
23/02:00pm SE 15-21 kts 27.3°c 1017.3 hPa 72% 0.0mm
23/01:30pm ESE 15-20 kts 27.9°c 1017.5 hPa 70% 0.0mm
23/01:00pm ESE 15-20 kts 27.4°c 1017.8 hPa 70% 0.0mm
23/12:30pm ESE 15-19 kts 28.2°c 1018.4 hPa 68% 0.0mm
23/12:00pm ESE 15-20 kts 27.7°c 1018.6 hPa 69% 0.0mm
23/11:30am ESE 15-21 kts 27.6°c 1019.0 hPa 68% 0.0mm
23/11:00am ESE 14-20 kts 27.7°c 1019.3 hPa 69% 0.0mm
23/10:30am ESE 14-19 kts 27.8°c 1019.6 hPa 69% 0.0mm
23/10:00am ESE 14-19 kts 27.3°c 1019.5 hPa 71% 0.0mm
23/09:30am ESE 16-21 kts 27.2°c 1019.6 hPa 71% 0.0mm
23/09:00am SE 15-21 kts 27.5°c 1019.5 hPa 70% 4.6mm
23/08:30am SE 14-19 kts 26.6°c 1019.4 hPa 69% 4.6mm
23/08:00am SE 15-22 kts 26.3°c 1019.2 hPa 70% 4.6mm
23/07:30am ESE 15-22 kts 26.3°c 1019.0 hPa 70% 4.6mm
23/07:00am ESE 16-22 kts 26.1°c 1018.8 hPa 70% 4.6mm
23/06:30am SE 15-21 kts 25.9°c 1018.6 hPa 72% 4.6mm
23/06:00am ESE 16-22 kts 25.3°c 1017.9 hPa 78% 4.6mm
23/05:30am ESE 17-26 kts 25.0°c 1017.7 hPa 84% 4.6mm
23/05:00am SE 16-21 kts 25.7°c 1017.6 hPa 74% 4.6mm
23/04:30am SE 16-25 kts 25.5°c 1017.1 hPa 75% 4.6mm
23/04:27am SE 15-25 kts 25.5°c 1017.2 hPa 75% 4.6mm
23/04:00am SE 15-20 kts 25.1°c 1017.2 hPa 74% 4.6mm
23/03:30am E 10-13 kts 23.6°c 1017.4 hPa 93% 4.6mm
23/03:07am ESE 15-26 kts 22.9°c 1017.8 hPa 94% 4.6mm
23/03:00am E 21-27 kts 23.4°c 1017.8 hPa 90% 4.4mm
23/02:53am E 21-29 kts 23.7°c 1017.7 hPa 91% 4.4mm
23/02:46am ESE 16-27 kts 25.1°c 1017.6 hPa 82% 4.4mm
23/02:30am ESE 15-23 kts 25.8°c 1017.6 hPa 73% 4.4mm
23/02:00am ESE 17-22 kts 25.7°c 1017.6 hPa 70% 4.4mm
23/01:30am SE 14-18 kts 25.4°c 1017.7 hPa 74% 4.4mm
23/01:00am SE 17-24 kts 24.7°c 1018.2 hPa 81% 4.4mm
23/12:30am SE 16-22 kts 25.3°c 1018.8 hPa 80% 4.4mm
23/12:00am ESE 19-30 kts 23.9°c 1019.1 hPa 82% 4.4mm